Weather History for Baker, MT

Change the Weather History Date:

Thursday, November 1, 2012

  Actual Average Record
Temperature  
Mean Temperature 36 °F -  
Max Temperature 39 °F 34 °F 71 °F (2008)
Min Temperature 33 °F 31 °F 8 °F (2002)
Degree Days  
Heating Degree Days 29    
Moisture  
Dew Point 33 °F    
Average Humidity 89    
Maximum Humidity 93    
Minimum Humidity 79    
Precipitation  
Precipitation 0.00 in - - ()
Sea Level Pressure  
Sea Level Pressure 29.93 in    
Wind  
Wind Speed 20 mph (SE)    
Max Wind Speed 31 mph    
Max Gust Speed 37 mph    
Visibility 5 miles    
Events Fog    
Averages and records for this station are not official NWS values.
T = Trace of Precipitation, MM = Missing Value Source: NWS Daily Summary

Daily Weather History Graph

Daily Weather History Graph

Search for Another Location

Airport:

Trip Planner

Search our weather history database for the weather conditions in past years. The results will help you decide how hot, cold, wet, or windy it might be!

Date:

Astronomy

Nov. 01, 2012 Rise Set
Actual Time 7:39 AM MDT 5:41 PM MDT
Civil Twilight 7:07 AM MDT 6:12 PM MDT
Nautical Twilight 6:32 AM MDT 6:48 PM MDT
Astronomical Twilight 5:57 AM MDT 7:23 PM MDT
Moon 7:33 PM MDT (11/1) 10:21 AM MDT (11/1)
Length of Visible Light 11h 05m
Length of Day
10h 02m
Waning Gibbous, 92% of the Moon is Illuminated
Nov 1
Waning Gibbous
Nov 6
Last Quarter
Nov 13
New
Nov 20
First Quarter
Nov 28
Full

Hourly Weather History & Observations

Time (MDT) Temp. Windchill Dew Point Humidity Pressure Visibility Wind Dir Wind Speed Gust Speed Precip Events Conditions
12:51 AM 35.1 °F 25.5 °F 33.1 °F 92% 30.07 in 0.5 mi ESE 15.0 mph 21.9 mph N/A Fog Fog
1:51 AM 35.1 °F 24.8 °F 32.0 °F 89% 30.05 in 0.5 mi ESE 17.3 mph - N/A Fog Fog
2:51 AM 36.0 °F 26.0 °F 33.1 °F 89% 30.03 in 0.8 mi ESE 17.3 mph - N/A   Mist
3:51 AM 35.1 °F 24.8 °F 33.1 °F 92% 30.01 in 0.8 mi ESE 17.3 mph 26.5 mph N/A   Mist
4:34 AM 35.6 °F 24.8 °F 32.0 °F 87% 29.96 in 1.0 mi ESE 19.6 mph - N/A   Mist
4:51 AM 35.1 °F 24.5 °F 33.1 °F 92% 30.00 in 1.0 mi ESE 18.4 mph 25.3 mph N/A   Mist
5:51 AM 35.1 °F 23.8 °F 33.1 °F 92% 30.01 in 1.0 mi ESE 20.7 mph 27.6 mph N/A   Mist
6:51 AM 34.0 °F 22.7 °F 32.0 °F 92% 29.99 in 1.0 mi ESE 19.6 mph 26.5 mph N/A   Mist
7:22 AM 35.6 °F 24.2 °F 32.0 °F 87% 29.93 in 2.0 mi ESE 21.9 mph 28.8 mph N/A   Overcast
7:29 AM 33.8 °F 22.2 °F 32.0 °F 93% 29.93 in 1.5 mi ESE 20.7 mph 27.6 mph N/A   Overcast
7:51 AM 34.0 °F 21.8 °F 32.0 °F 92% 29.99 in 1.5 mi ESE 23.0 mph 27.6 mph N/A   Overcast
8:05 AM 35.6 °F 24.0 °F 32.0 °F 87% 29.92 in 2.0 mi ESE 23.0 mph 28.8 mph N/A   Overcast
8:12 AM 35.6 °F 24.0 °F 32.0 °F 87% 29.92 in 1.2 mi SE 23.0 mph 28.8 mph N/A   Overcast
8:38 AM 33.8 °F 21.9 °F 32.0 °F 93% 29.91 in 0.8 mi ESE 21.9 mph 32.2 mph N/A   Mist
8:51 AM 34.0 °F 22.4 °F 32.0 °F 92% 29.98 in 0.8 mi ESE 20.7 mph 29.9 mph N/A   Mist
9:06 AM 35.6 °F 24.2 °F 32.0 °F 87% 29.93 in 1.2 mi SE 21.9 mph 27.6 mph N/A   Overcast
9:15 AM 35.6 °F 25.2 °F 32.0 °F 87% 29.92 in 2.0 mi SE 18.4 mph 27.6 mph N/A   Overcast
9:26 AM 33.8 °F 21.6 °F 32.0 °F 93% 29.91 in 5.0 mi SE 23.0 mph 33.4 mph N/A   Overcast
9:36 AM 33.8 °F 21.0 °F 32.0 °F 93% 29.90 in 2.0 mi SE 25.3 mph 34.5 mph N/A   Overcast
9:45 AM 33.8 °F 19.9 °F 32.0 °F 93% 29.90 in 1.8 mi SE 31.1 mph 36.8 mph N/A   Overcast
9:51 AM 35.1 °F 22.7 °F 32.0 °F 89% 29.96 in 1.8 mi SE 25.3 mph 36.8 mph N/A   Overcast
10:23 AM 35.6 °F 23.0 °F 32.0 °F 87% 29.89 in 0.8 mi SE 27.6 mph 35.7 mph N/A   Mist
10:29 AM 35.6 °F 23.4 °F 32.0 °F 87% 29.89 in 1.0 mi SE 25.3 mph 33.4 mph N/A   Mist
10:51 AM 35.1 °F 23.0 °F 33.1 °F 92% 29.96 in 3.0 mi SE 24.2 mph 29.9 mph N/A   Overcast
11:51 AM 36.0 °F 24.4 °F 33.1 °F 89% 29.94 in 10.0 mi SE 23.0 mph 34.5 mph N/A   Overcast
12:11 PM 35.6 °F 24.5 °F 33.8 °F 93% 29.89 in 10.0 mi SE 20.7 mph 31.1 mph N/A   Overcast
12:51 PM 37.0 °F 25.6 °F 34.0 °F 89% 29.91 in 10.0 mi SE 24.2 mph 32.2 mph N/A   Overcast
1:51 PM 39.0 °F 28.8 °F 35.1 °F 86% 29.90 in 10.0 mi SE 21.9 mph 33.4 mph N/A   Overcast
1:56 PM 39.2 °F 28.0 °F 35.6 °F 87% 29.84 in 10.0 mi SE 26.5 mph 33.4 mph N/A   Overcast
2:51 PM 39.9 °F 29.5 °F 34.0 °F 79% 29.88 in 10.0 mi SE 24.2 mph 31.1 mph N/A   Overcast
3:51 PM 39.9 °F 29.5 °F 35.1 °F 83% 29.87 in 10.0 mi SE 24.2 mph - N/A   Overcast
4:51 PM 39.0 °F 28.5 °F 34.0 °F 82% 29.89 in 10.0 mi SE 23.0 mph 28.8 mph N/A   Overcast
5:51 PM 39.0 °F 29.9 °F 35.1 °F 86% 29.91 in 10.0 mi SE 17.3 mph 25.3 mph N/A   Overcast
6:51 PM 39.0 °F 29.9 °F 35.1 °F 86% 29.90 in 10.0 mi SE 17.3 mph 26.5 mph N/A   Overcast
7:51 PM 39.0 °F 30.3 °F 35.1 °F 86% 29.91 in 10.0 mi SE 16.1 mph 25.3 mph N/A   Overcast
8:45 PM 37.4 °F 28.9 °F 33.8 °F 87% 29.87 in 7.0 mi ESE 13.8 mph - N/A   Overcast
8:51 PM 37.0 °F 28.1 °F 34.0 °F 89% 29.92 in 6.0 mi ESE 15.0 mph - N/A   Overcast
10:42 PM 37.4 °F 29.3 °F 33.8 °F 87% 29.87 in 10.0 mi SE 12.7 mph - N/A   Overcast
11:31 PM 37.4 °F 29.8 °F 33.8 °F 87% 29.88 in 10.0 mi SE 11.5 mph - N/A   Overcast
11:51 PM 37.0 °F 30.4 °F 34.0 °F 89% 29.94 in 9.0 mi ESE 9.2 mph - N/A   Overcast